#timestamp,LO_Frequency,Hit,StdDev 
1532318415.1,286047000.4,N
1532318435.9,286046998.5,N
1532318455.7,286047001.0,N
1532318475.5,286047000.2,N
1532318495.4,286047002.3,N
1532318515.2,286047000.9,N
1532318535.1,286047000.4,N
1532318536.0,286047000.4,N
1532318555.8,286047002.6,N
1532318575.6,286047002.2,N
1532318595.5,286047001.9,N
1532318615.6,286047002.0,N
1532318635.4,286047001.5,N
1532318655.2,286047001.6,N
1532318675.1,286047002.8,N
1532318695.1,286047002.8,N
1532318696.0,286047002.8,N
1532318715.8,286047002.3,N
1532318735.7,286047002.4,N
1532318755.5,286047002.7,N
1532318775.3,286047002.8,N
1532318795.2,286047001.5,N
1532318815.0,286047002.7,N
1532318815.9,286047002.7,N
1532318835.8,286046999.7,N
1532318855.6,286047000.2,N
1532318875.4,286047000.8,N
1532318895.3,286047001.0,N
1532318915.1,286047000.7,N
1532318935.8,286046998.1,N
1532318955.7,286047000.8,N
1532318975.5,286047001.2,N
1532318995.4,286047001.2,N
1532319015.2,286046998.7,N
1532319035.0,286046998.3,N
1532319035.9,286046998.3,N
1532319055.8,286046998.8,N
1532319075.6,286046998.7,N
1532319095.4,286046999.2,N
1532319115.3,286046996.9,N
1532319135.1,286046999.2,N
1532319155.9,286046996.9,N
1532319175.7,286046996.9,N
1532319195.5,286046997.2,N
1532319215.4,286046996.6,N
1532319235.2,286046996.6,N
1532319255.1,286046996.6,N
1532319256.0,286046996.6,N
1532319305.8,286046997.1,E
1532319315.7,286046999.5,N
1532319335.6,286047000.8,P
1532319355.4,286047001.0,N
1532319375.3,286047000.7,N
1532319395.1,286047000.8,N
1532319396.0,286047000.8,N
1532319415.8,286046998.2,Y
1532319435.7,286047000.7,P
1532319455.5,286046998.6,P
1532319475.3,286046999.3,N
1532319495.2,286046999.2,N
1532319515.0,286046996.5,Y
1532319515.9,286046996.5,P
1532319535.8,286046997.5,N
1532319555.6,286046997.3,N
1532319575.4,286046997.9,N
1532319595.3,286046995.3,Y
1532319615.4,286046998.4,P
1532319635.2,286046998.3,P
1532319655.1,286046999.6,N
1532319686.0,286046996.5,E
1532319695.1,286047000.3,N
1532319715.8,286047001.6,P
1532319735.7,286047002.3,P
1532319755.5,286047002.5,N
1532319775.3,286047002.4,N
1532319795.2,286047002.4,N
1532319815.0,286047002.1,N
1532319815.9,286047002.1,N
1532319835.8,286047002.3,Y
1532319855.6,286047000.8,P
1532319875.4,286047001.2,N
1532319895.3,286047001.2,N
1532319915.1,286046998.2,Y
1532319935.9,286046999.6,P
1532319955.7,286046999.6,N
1532319975.5,286046999.1,N
1532320025.4,286046999.4,E
1532320035.3,286046999.1,N
1532320055.2,286046998.9,P
1532320075.9,286046999.0,P
1532320095.7,286046998.9,Y
1532320115.6,286047000.9,P
1532320135.4,286047000.8,N
1532320155.3,286047000.8,N
1532320175.1,286047001.0,N
1532320176.0,286047001.0,N
1532320195.8,286047000.6,N
1532320215.7,286047000.8,N
1532320235.5,286047001.2,N
1532320255.4,286047001.1,N
1532320275.2,286047001.1,N
1532320295.0,286046998.6,N
1532320295.9,286046998.6,N
1532320315.8,286047001.1,N
1532320335.6,286046998.7,N
1532320355.5,286046999.1,N
1532320375.3,286046996.5,Y
1532320395.1,286046996.8,P
1532320415.9,286046997.0,N
1532320435.7,286046996.9,N
1532320455.5,286046999.4,N
1532320475.4,286046996.6,N
1532320495.2,286046999.5,N
1532320515.1,286046996.6,N
1532320516.0,286046996.6,N
1532320535.8,286046996.6,N
1532320555.6,286046997.1,N
1532320575.5,286046997.6,N
1532320595.3,286046996.7,N
1532320615.1,286046997.2,N
1532320635.0,286046996.5,N
1532320635.9,286046996.5,N
1532320655.8,286046999.5,N
1532320675.6,286046999.4,N
1532320695.4,286046997.0,N
1532320715.3,286046999.6,N
1532320735.1,286046999.2,N
1532320755.9,286046999.5,N
1532320775.7,286046999.1,N
1532320795.5,286046998.7,N
1532320815.4,286046999.0,N
1532320835.2,286046998.8,N
1532320855.0,286046999.0,N
1532320855.9,286046999.0,N
1532320875.8,286046999.3,N
1532320895.6,286046999.2,N
1532320915.5,286046997.0,N
1532320935.3,286046999.5,N
1532320955.1,286046999.3,N
1532320975.9,286046999.0,N
1532320995.7,286046996.8,N
1532321015.5,286046996.8,N
1532321035.4,286046997.7,N
1532321055.2,286046996.5,N
1532321075.1,286046999.1,N
1532321076.0,286046999.1,N
1532321095.4,286046997.0,N
1532321115.2,286046996.8,N
1532321135.1,286046996.8,N
1532321136.0,286046996.8,N
1532321155.8,286046997.3,N
1532321175.7,286046996.7,N
1532321195.5,286046999.5,N
1532321215.3,286046999.2,N
1532321235.2,286046997.8,N
1532321255.0,286046997.5,N
1532321255.9,286046997.5,N
1532321275.7,286046995.0,Y
1532321295.6,286046999.0,P
1532321315.4,286046999.4,N
1532321335.3,286046998.6,N
1532321355.1,286046999.3,N
1532321356.0,286046999.3,N
1532321375.8,286046998.1,Y
1532321395.7,286047000.2,P
1532321415.5,286047000.5,N
1532321435.4,286047000.6,N
1532321455.2,286047000.0,N
1532321475.0,286047002.3,Y
1532321475.9,286047002.3,P
1532321495.8,286047002.6,N
1532321515.6,286047001.8,N
1532321535.5,286046999.8,N
1532321555.3,286047000.1,N
1532321575.1,286047000.9,N
1532321595.9,286047000.2,N
1532321615.7,286047002.6,N
1532321635.5,286047002.1,N
1532321655.4,286047002.1,N
1532321675.2,286047002.6,N
1532321695.1,286047002.2,N
1532321696.0,286047002.2,N
1532321715.8,286047002.3,N
1532321735.6,286047001.7,N
1532321755.5,286047002.5,N
1532321775.3,286047001.5,N
1532321795.2,286047004.1,Y
1532321815.9,286047003.9,P
1532321835.7,286047001.8,N
1532321855.6,286047001.4,N
1532321875.4,286047001.3,N
1532321895.2,286047001.8,N
1532321915.1,286047001.4,N
1532321916.0,286047001.4,N
1532321935.8,286047004.0,Y
1532321955.7,286046999.7,P
1532321975.5,286047002.2,N
1532321995.3,286047002.8,N
